Location: Capelle
(50.3413°N, 1.9974°E)
Time: 10:22:03
(UTC+00:00)

SL-16 R/B - Pass Details

Date: 12 January 2026
Orbit: 985 x 1007 km, 99.8° (Epoch: 19 February)

Event Time Altitude Azimuth Distance (km) Brightness Sun altitude
Rises 17:14:43 0° 14° (NNE) 3,710 5.2 -9.5°
Reaches altitude 10° 17:17:12 10° 12° (NNE) 2,756 4.5 -9.9°
Maximum altitude 17:23:19 67° 292° (WNW) 1,069 2.9 -10.8°
Drops below altitude 10° 17:29:24 10° 212° (SSW) 2,737 5.7 -11.7°
Sets 17:31:52 0° 209° (SSW) 3,683 6.3 -12.1°
